Погода в Коронейшене

Канада     52°05′39″N   111°26′56″W
В апреле 2022 года жителям России запретили посещать сайт meteo.paraplan.net по решению Генеральной прокуратуры. Аудитория сайта уменьшилась в 10 раз. Владельцы сайта не видят смысла в поддержке погодного сервера в таких условиях. Сайт будет закрыт в октябре.
темп.,
°C
ветер,
м/с
пор.,
м/с
влажн.,
%
обл.,
%
осадки,
мм/ч
давл.,
гПа
погр.,
м
4 октября, вт
вт400:00+14ююв345411 0.0 101745
03:00+12ю346656 0.0 101662
06:00+12ююз226813 0.0 101620
09:00+14зюз23607 0.0 101684
12:00+21сз333724 0.0 1015596
15:00+23ссз45335 0.0 10151250
18:00+21с463627 0.0 1015199
21:00+14ссв3643100 0.0 101897
5 октября, ср
ср500:00+13ссв3647100 0.0 1019106
03:00+12св3548100 0.0 102095
06:00+12всв3747100 0.0 1021216
09:00+11всв5956100 0.0 1023331
12:00+12всв5651100 0.0 1025486
15:00+12всв564797 0.1 1026724
18:00+10в575588 0.2 1028584
21:00+9в3759100 0.0 1030536
6 октября, чт
чт600:00+9вюв2659100 0.0 1031475
03:00+9юв4756100 0.0 1031470
06:00+8юв485324 0.0 1031378
09:00+7ююв58535 0.0 1031351
12:00+13ююв56413 0.0 1029721
15:00+16ю56350 0.0 10271034
18:00+15ю36400 0.0 1025244
21:00+11ю34540 0.0 102554
7 октября, пт
пт700:00+10ююз33580 0.0 102542
03:00+9з33630 0.0 102543
06:00+8сз34710 0.0 102647
09:00+10ссз246621 0.0 1026103
12:00+17ссз23420 0.0 1025539
15:00+20сз12320 0.0 10231093
18:00+18ю11370 0.0 102111
21:00+13ююз33480 0.0 102218
8 октября, сб
сб800:00+12ююз33530 0.0 102236
03:00+11ююз34570 0.0 102149
06:00+9ююз34600 0.0 102048
09:00+11ююз35540 0.0 1019119
12:00+19юз34343 0.0 1017561
15:00+22зсз34285 0.0 10141394
18:00+19ссз363598 0.0 1014122
21:00+14ссз3646100 0.0 101680